Torna al catalogo

STARLINK-6280

AttivoComunicazioniVLEO
NORAD 56531·PAYLOAD·🇺🇸 United States

Lanciato May 14, 2023 da Cape Canaveral Space Force Station

Loading…

Prossimi Passaggi (prossime 24 ore)

TLE

AggiornatoSource: CelesTrak SupGP

Epoca: Sep 15, 2026, 01:35 UTC

1 56531C 23065AE  26258.06645833 -.00024926  00000+0 -90296-3 0  2585
2 56531  43.0026 208.8467 0001351 270.4792 163.2252 15.27585674    15

Traccia STARLINK-6280 in tempo reale con AllMySat

Download on the App Store